| time (UTC) | temp C | wind direction | speed KPH | gust KPH | rain 1hr cm | rain 24hr cm | rain mn cm | humidity % | barometer mb |
| 20260508025025 | 9 | 0.0 | 0.0 | 0.00 | 0.00 | 0.00 | 83 | 1010.3 | |
| 20260508024026 | 10 | 0.0 | 0.0 | 0.00 | 0.00 | 0.00 | 83 | 1010.3 | |
| 20260508023045 | 10 | 0.0 | 0.0 | 0.00 | 0.00 | 0.00 | 84 | 1010.3 | |
| 20260508022025 | 10 | 0.0 | 0.0 | 0.00 | 0.00 | 0.00 | 85 | 1010.3 | |
| 20260508021046 | 10 | 0.0 | 0.0 | 0.00 | 0.00 | 0.00 | 86 | 1010.3 | |
| 20260508020025 | 10 | 0.0 | 0.0 | 0.00 | 0.00 | 0.00 | 86 | 1010.2 | |
| 20260508015025 | 10 | 0.0 | 0.0 | 0.00 | 0.00 | 0.00 | 86 | 1010.1 | |
| 20260508014025 | 10 | 0.0 | 0.0 | 0.00 | 0.00 | 0.00 | 86 | 1010.0 | |
| 20260508013025 | 10 | 0.0 | 0.0 | 0.00 | 0.00 | 0.00 | 86 | 1009.8 | |
| 20260508012025 | 10 | 0.0 | 0.0 | 0.00 | 0.00 | 0.00 | 86 | 1009.7 | |
| 20260508011025 | 10 | 0.0 | 0.0 | 0.00 | 0.00 | 0.00 | 86 | 1009.7 | |
| 20260508010024 | 10 | 0.0 | 0.0 | 0.00 | 0.00 | 0.00 | 85 | 1009.5 | |
| 20260508005046 | 10 | 0.0 | 0.0 | 0.00 | 0.00 | 0.00 | 85 | 1009.4 | |
| 20260508004029 | 11 | 0.0 | 0.0 | 0.00 | 0.00 | 0.00 | 84 | 1009.4 | |
| 20260508003025 | 11 | 0.0 | 0.0 | 0.00 | 0.00 | 0.00 | 84 | 1009.3 | |
| 20260508002025 | 11 | 0.0 | 0.0 | 0.00 | 0.00 | 0.00 | 83 | 1009.2 | |
| 20260508001106 | 11 | 0.0 | 0.0 | 0.00 | 0.00 | 0.00 | 83 | 1009.2 | |
| 20260508000026 | 12 | 0.0 | 0.0 | 0.00 | 0.00 | 0.00 | 82 | 1009.1 | |
| 20260507235046 | 12 | 0.0 | 0.0 | 0.00 | 0.00 | 0.00 | 80 | 1008.9 | |
| 20260507234026 | 12 | 0.0 | 1.6 | 0.00 | 0.00 | 0.00 | 80 | 1008.8 | |
| 20260507233026 | 12 | 0.0 | 1.6 | 0.00 | 0.00 | 0.00 | 79 | 1008.6 | |
| 20260507232025 | 12 | 0.0 | 1.6 | 0.00 | 0.00 | 0.00 | 79 | 1008.5 | |
| 20260507231045 | 13 | 0.0 | 1.6 | 0.00 | 0.00 | 0.00 | 80 | 1008.4 | |
| 20260507230025 | 13 | 0.0 | 1.6 | 0.00 | 0.00 | 0.00 | 78 | 1008.3 | |
| 20260507225025 | 13 | 0.0 | 3.2 | 0.00 | 0.00 | 0.00 | 78 | 1008.3 | |
| 20260507224025 | 13 | 0.0 | 1.6 | 0.00 | 0.00 | 0.00 | 77 | 1008.2 | |
| 20260507223024 | 13 | 68 | 1.6 | 6.4 | 0.00 | 0.00 | 0.00 | 76 | 1008.2 |
| 20260507222025 | 13 | 68 | 1.6 | 6.4 | 0.00 | 0.00 | 0.00 | 76 | 1008.3 |
| 20260507221025 | 14 | 68 | 1.6 | 11.3 | 0.00 | 0.00 | 0.00 | 75 | 1008.2 |
| 20260507220045 | 14 | 68 | 1.6 | 4.8 | 0.00 | 0.00 | 0.00 | 74 | 1008.0 |
| 20260507215025 | 14 | 0.0 | 1.6 | 0.00 | 0.00 | 0.00 | 74 | 1008.1 | |
| 20260507214025 | 14 | 68 | 1.6 | 8.0 | 0.00 | 0.00 | 0.00 | 72 | 1008.0 |
| 20260507213024 | 14 | 0.0 | 3.2 | 0.00 | 0.00 | 0.00 | 71 | 1008.1 | |
| 20260507212025 | 14 | 0.0 | 6.4 | 0.00 | 0.00 | 0.00 | 71 | 1008.2 | |
| 20260507211045 | 14 | 0.0 | 3.2 | 0.00 | 0.00 | 0.00 | 73 | 1008.2 | |
| 20260507210025 | 14 | 0.0 | 4.8 | 0.00 | 0.00 | 0.00 | 73 | 1008.4 | |
| 20260507205045 | 14 | 68 | 1.6 | 4.8 | 0.00 | 0.00 | 0.00 | 75 | 1008.4 |
| 20260507204025 | 14 | 68 | 1.6 | 8.0 | 0.00 | 0.00 | 0.00 | 71 | 1008.3 |
| 20260507203024 | 13 | 90 | 1.6 | 9.7 | 0.00 | 0.00 | 0.00 | 70 | 1008.4 |
| 20260507202024 | 13 | 90 | 1.6 | 6.4 | 0.00 | 0.00 | 0.00 | 72 | 1008.4 |
| 20260507201045 | 13 | 90 | 1.6 | 8.0 | 0.00 | 0.00 | 0.00 | 71 | 1008.5 |
| 20260507200025 | 13 | 0.0 | 1.6 | 0.00 | 0.00 | 0.00 | 71 | 1008.3 | |
| 20260507195025 | 13 | 90 | 1.6 | 4.8 | 0.00 | 0.00 | 0.00 | 68 | 1008.6 |
| 20260507194105 | 13 | 0.0 | 6.4 | 0.00 | 0.00 | 0.00 | 67 | 1008.9 | |
| 20260507193026 | 13 | 0.0 | 3.2 | 0.00 | 0.00 | 0.00 | 68 | 1008.8 | |
| 20260507192025 | 13 | 0.0 | 1.6 | 0.00 | 0.00 | 0.00 | 73 | 1008.5 | |
| 20260507191025 | 13 | 0.0 | 9.7 | 0.00 | 0.00 | 0.00 | 74 | 1008.5 | |
| 20260507190024 | 13 | 0.0 | 4.8 | 0.00 | 0.00 | 0.00 | 74 | 1009.1 | |
| 20260507185025 | 12 | 0.0 | 1.6 | 0.00 | 0.00 | 0.00 | 79 | 1009.2 | |
| 20260507184025 | 12 | 0.0 | 0.0 | 0.00 | 0.00 | 0.00 | 77 | 1009.4 | |
| 20260507183024 | 13 | 0.0 | 0.0 | 0.00 | 0.00 | 0.00 | 74 | 1009.6 | |
| 20260507182025 | 13 | 0.0 | 1.6 | 0.00 | 0.00 | 0.00 | 64 | 1009.8 | |
| 20260507181025 | 13 | 0.0 | 1.6 | 0.00 | 0.00 | 0.00 | 62 | 1009.5 | |
| 20260507180025 | 13 | 0.0 | 3.2 | 0.00 | 0.00 | 0.00 | 62 | 1009.5 | |
| 20260507175024 | 13 | 0.0 | 4.8 | 0.00 | 0.00 | 0.00 | 59 | 1009.8 | |
| 20260507174026 | 13 | 0.0 | 3.2 | 0.00 | 0.00 | 0.00 | 58 | 1009.6 | |
| 20260507173025 | 13 | 0.0 | 3.2 | 0.00 | 0.00 | 0.00 | 65 | 1009.7 | |
| 20260507172025 | 13 | 0.0 | 3.2 | 0.00 | 0.00 | 0.00 | 66 | 1009.8 | |
| 20260507171025 | 13 | 68 | 1.6 | 6.4 | 0.00 | 0.00 | 0.00 | 63 | 1010.2 |
| 20260507170024 | 13 | 0.0 | 3.2 | 0.00 | 0.00 | 0.00 | 66 | 1010.1 | |
| 20260507165025 | 13 | 0.0 | 3.2 | 0.00 | 0.00 | 0.00 | 70 | 1010.3 | |
| 20260507164025 | 12 | 0.0 | 0.0 | 0.00 | 0.00 | 0.00 | 69 | 1010.5 | |
| 20260507163025 | 12 | 0.0 | 3.2 | 0.00 | 0.00 | 0.00 | 65 | 1010.8 | |
| 20260507162024 | 13 | 0.0 | 1.6 | 0.00 | 0.00 | 0.00 | 67 | 1010.7 | |
| 20260507161025 | 13 | 0.0 | 4.8 | 0.00 | 0.00 | 0.00 | 69 | 1010.6 | |
| 20260507160025 | 13 | 0.0 | 1.6 | 0.00 | 0.00 | 0.00 | 69 | 1010.6 | |
| 20260507155025 | 13 | 0.0 | 1.6 | 0.00 | 0.00 | 0.00 | 72 | 1010.8 | |
| 20260507154025 | 13 | 0.0 | 1.6 | 0.00 | 0.00 | 0.00 | 72 | 1010.6 | |
| 20260507153044 | 13 | 0.0 | 1.6 | 0.00 | 0.00 | 0.00 | 69 | 1010.7 | |
| 20260507152025 | 13 | 0.0 | 1.6 | 0.00 | 0.00 | 0.00 | 69 | 1010.9 | |
| 20260507151024 | 13 | 0.0 | 1.6 | 0.00 | 0.00 | 0.00 | 73 | 1010.7 | |
| 20260507150024 | 13 | 0.0 | 1.6 | 0.00 | 0.00 | 0.00 | 75 | 1010.7 | |
| 20260507145105 | 13 | 0.0 | 3.2 | 0.00 | 0.00 | 0.00 | 74 | 1011.0 | |
| 20260507144024 | 13 | 0.0 | 1.6 | 0.00 | 0.00 | 0.00 | 75 | 1011.3 | |
| 20260507143025 | 13 | 0.0 | 9.7 | 0.00 | 0.00 | 0.00 | 73 | 1011.4 | |
| 20260507142024 | 13 | 0.0 | 4.8 | 0.00 | 0.00 | 0.00 | 72 | 1011.3 | |
| 20260507141024 | 13 | 0.0 | 6.4 | 0.00 | 0.00 | 0.00 | 72 | 1011.2 | |
| 20260507140025 | 13 | 0.0 | 1.6 | 0.00 | 0.00 | 0.00 | 73 | 1011.5 | |
| 20260507135025 | 13 | 0.0 | 3.2 | 0.00 | 0.00 | 0.00 | 73 | 1011.5 | |
| 20260507134025 | 13 | 0.0 | 4.8 | 0.00 | 0.00 | 0.00 | 74 | 1011.3 | |
| 20260507133024 | 13 | 0.0 | 4.8 | 0.00 | 0.00 | 0.00 | 73 | 1011.2 | |
| 20260507132026 | 13 | 0.0 | 3.2 | 0.00 | 0.00 | 0.00 | 79 | 1011.2 | |
| 20260507131026 | 13 | 68 | 1.6 | 8.0 | 0.00 | 0.00 | 0.00 | 78 | 1011.1 |
| 20260507130050 | 13 | 0.0 | 9.7 | 0.00 | 0.00 | 0.00 | 77 | 1011.2 | |
| 20260507125027 | 13 | 0.0 | 4.8 | 0.00 | 0.00 | 0.00 | 79 | 1011.3 | |
| 20260507124024 | 13 | 68 | 1.6 | 8.0 | 0.00 | 0.00 | 0.00 | 80 | 1011.1 |
| 20260507123026 | 13 | 0.0 | 8.0 | 0.00 | 0.00 | 0.00 | 83 | 1011.1 | |
| 20260507122027 | 13 | 0.0 | 1.6 | 0.00 | 0.00 | 0.00 | 85 | 1011.0 | |
| 20260507121027 | 12 | 0.0 | 3.2 | 0.00 | 0.00 | 0.00 | 85 | 1010.7 | |
| 20260507120026 | 12 | 0.0 | 8.0 | 0.00 | 0.00 | 0.00 | 86 | 1010.4 | |
| 20260507115026 | 12 | 0.0 | 4.8 | 0.00 | 0.00 | 0.00 | 86 | 1010.7 | |
| 20260507114026 | 12 | 0.0 | 9.7 | 0.00 | 0.00 | 0.00 | 86 | 1010.8 | |
| 20260507113026 | 12 | 0.0 | 4.8 | 0.00 | 0.00 | 0.00 | 86 | 1010.6 | |
| 20260507112026 | 12 | 0.0 | 4.8 | 0.00 | 0.00 | 0.00 | 86 | 1010.3 | |
| 20260507111106 | 12 | 0.0 | 0.0 | 0.00 | 0.00 | 0.00 | 85 | 1010.6 | |
| 20260507110025 | -17 | 0.0 | 0.0 | 0.00 | 0.00 | 0.00 | |||
| 20260507105025 | -17 | 0.0 | 0.0 | 0.00 | 0.00 | 0.00 | |||
| 20260507104543 | -17 | 0.0 | 0.0 | 0.00 | 0.00 | 0.00 | |||
| 20260507104021 | -17 | 0.0 | 0.0 | 0.00 | 0.00 | 0.00 | |||
| 20260507103605 | -17 | 0.0 | 0.0 | 0.00 | 0.00 | 0.00 | |||
| 20260507102525 | -17 | 0.0 | 0.0 | 0.00 | 0.00 | 0.00 | |||
| 20260507102044 | -17 | 0.0 | 0.0 | 0.00 | 0.00 | 0.00 | |||
| 20260507101523 | -17 | 0.0 | 0.0 | 0.00 | 0.00 | 0.00 | |||
| 20260507101026 | -17 | 0.0 | 0.0 | 0.00 | 0.00 | 0.00 | |||
| 20260507100024 | -17 | 0.0 | 0.0 | 0.00 | 0.00 | 0.00 | |||
| 20260507095559 | -17 | 0.0 | 0.0 | 0.00 | 0.00 | 0.00 | |||
| 20260507095059 | -17 | 0.0 | 0.0 | 0.00 | 0.00 | 0.00 | |||
| 20260507094524 | -17 | 0.0 | 0.0 | 0.00 | 0.00 | 0.00 | |||
| 20260507093525 | -17 | 0.0 | 0.0 | 0.00 | 0.00 | 0.00 | |||
| 20260507093039 | -17 | 0.0 | 0.0 | 0.00 | 0.00 | 0.00 | |||
| 20260507092519 | -17 | 0.0 | 0.0 | 0.00 | 0.00 | 0.00 | |||
| 20260507091544 | -17 | 0.0 | 0.0 | 0.00 | 0.00 | 0.00 | |||
| 20260507090607 | -17 | 0.0 | 0.0 | 0.00 | 0.00 | 0.00 | 76 | ||
| 20260507090103 | -17 | 0.0 | 0.0 | 0.00 | 0.00 | 0.00 | 76 | ||
| 20260507085046 | 12 | 0.0 | 1.6 | 0.00 | 0.00 | 0.00 | 71 | 1009.6 | |
| 20260507084026 | 12 | 0.0 | 1.6 | 0.00 | 0.00 | 0.00 | 70 | 1009.9 | |
| 20260507083027 | 12 | 0.0 | 0.0 | 0.00 | 0.00 | 0.00 | 67 | 1009.9 | |
| 20260507082026 | 12 | 0.0 | 1.6 | 0.00 | 0.00 | 0.00 | 69 | 1009.9 | |
| 20260507081026 | 12 | 0.0 | 0.0 | 0.00 | 0.00 | 0.00 | 70 | 1010.2 | |
| 20260507080026 | 12 | 0.0 | 1.6 | 0.00 | 0.00 | 0.00 | 70 | 1009.5 | |
| 20260507075026 | 13 | 0.0 | 1.6 | 0.00 | 0.00 | 0.00 | 65 | 1009.3 | |
| 20260507074026 | 13 | 0.0 | 1.6 | 0.00 | 0.00 | 0.00 | 61 | 1009.2 | |
| 20260507073025 | 13 | 0.0 | 1.6 | 0.00 | 0.00 | 0.00 | 63 | 1009.2 | |
| 20260507072105 | 13 | 0.0 | 0.0 | 0.00 | 0.00 | 0.00 | 64 | 1009.1 | |
| 20260507071025 | 13 | 0.0 | 0.0 | 0.00 | 0.00 | 0.00 | 65 | 1009.1 | |
| 20260507070025 | 13 | 0.0 | 3.2 | 0.00 | 0.00 | 0.00 | 69 | 1009.3 | |
| 20260507065025 | 13 | 0.0 | 3.2 | 0.00 | 0.00 | 0.00 | 70 | 1009.1 | |
| 20260507064026 | 13 | 68 | 1.6 | 11.3 | 0.00 | 0.00 | 0.00 | 66 | 1009.1 |
| 20260507063025 | 13 | 0.0 | 4.8 | 0.00 | 0.00 | 0.00 | 60 | 1009.4 | |
| 20260507062046 | 13 | 0.0 | 4.8 | 0.00 | 0.00 | 0.00 | 58 | 1009.2 | |
| 20260507061025 | 13 | 0.0 | 1.6 | 0.00 | 0.00 | 0.00 | 56 | 1008.5 | |
| 20260507060045 | 14 | 0.0 | 1.6 | 0.00 | 0.00 | 0.00 | 63 | 1007.7 | |
| 20260507055046 | 14 | 0.0 | 4.8 | 0.00 | 0.00 | 0.00 | 66 | 1007.5 | |
| 20260507054045 | 15 | 0.0 | 1.6 | 0.00 | 0.00 | 0.00 | 65 | 1007.7 | |
| 20260507053025 | 15 | 0.0 | 3.2 | 0.00 | 0.00 | 0.00 | 68 | 1008.5 | |
| 20260507052025 | 15 | 0.0 | 4.8 | 0.00 | 0.00 | 0.00 | 76 | 1008.9 | |
| 20260507051025 | 16 | 0.0 | 4.8 | 0.00 | 0.00 | 0.00 | 80 | 1009.1 | |
| 20260507050025 | 16 | 0.0 | 3.2 | 0.00 | 0.00 | 0.00 | 72 | 1008.9 | |
| 20260507045025 | 17 | 0.0 | 3.2 | 0.00 | 0.00 | 0.00 | 76 | 1008.7 | |
| 20260507044025 | 17 | 68 | 1.6 | 9.7 | 0.00 | 0.00 | 0.00 | 77 | 1008.2 |
| 20260507043025 | 17 | 0.0 | 0.0 | 0.00 | 0.00 | 0.00 | 59 | 1008.7 | |
| 20260507042025 | 17 | 0.0 | 0.0 | 0.00 | 0.00 | 0.00 | 65 | 1008.2 | |
| 20260507041025 | 17 | 0.0 | 6.4 | 0.00 | 0.00 | 0.00 | 66 | 1008.1 | |
| 20260507040046 | 17 | 0.0 | 0.0 | 0.00 | 0.00 | 0.00 | 68 | 1008.3 | |
| 20260507035025 | 17 | 0.0 | 0.0 | 0.00 | 0.00 | 0.00 | 73 | 1008.0 | |
| 20260507034026 | 17 | 0.0 | 0.0 | 0.00 | 0.00 | 0.00 | 75 | 1007.9 | |
| 20260507033025 | 17 | 0.0 | 0.0 | 0.00 | 0.00 | 0.00 | 76 | 1007.7 | |
| 20260507032025 | 17 | 0.0 | 0.0 | 0.00 | 0.00 | 0.00 | 72 | 1007.8 | |
| 20260507031026 | 17 | 0.0 | 0.0 | 0.00 | 0.00 | 0.00 | 71 | 1008.2 | |
| 20260507030025 | 17 | 0.0 | 0.0 | 0.00 | 0.00 | 0.00 | 71 | 1008.0 |